map of AJU home
AJU - Airport
Location
City:  Aracaju, Sergipe, Brazil
Name:Santa Maria
ICAO:SBAR
IATA:AJU

Details
Type:Airport (Aerodrome, Airfield)
Use:Public/Civil
Latitude:1059'02"S (-10.983999)
Longitude:3704'13"W (-37.070332)
Datum:WGS 1984
Elevation:23 ft (7 m)
Variation:23.05W (WMM2015 magnetic declination)
-0.00 annual change
Runways:1
Longest:7218 × 148 ft (2200 × 45 m), paved

Time
Time Zone:UTC-3
Local Time:

Weather
METAR:SBAR 280800Z 19001KT 9999 SCT015 26/23 Q1013
TAF:SBAR 280200Z 2806/2818 30003KT 9999 SCT018 TN26/2808Z TX29/2815Z
BECMG 2810/2811 12009KT
RMK PEI

Related Locations
Nearby:
Farthest:ULI: 12225 mi / 19674 km
Falalop Island, Ulithi Atoll, YAP, FM

Find:

   beyond  
but within

Other Information
Maps:
NOTAMs:
Links:
Sources:

  
flag of Brazil
flag of Sergipe
  

Sectional Chart

Flight Planning
at skyvector.com

Satellite Image

Google Maps Satellite view

 

Copyright © 2004-2017 Karl L. Swartz. All rights reserved.
The Great Circle Mapper name and logo are trademarks of the Great Circle Mapper.
All other trademarks mentioned herein belong to their respective owners.
Please see credits for attibutions and further copyright information.

  Follow gcmap on Facebook Follow gcmap on Twitter Follow gcmap on Google+ GCmap on LinkedIn

hCard Microformat

Geo Microformat